This is the latest recevied weather packets stored in our database for station/object K2RMB. If no packets are shown the sender has not sent any weather packets the latest 10 day(s).
| Time | Temp. | Humidity | Pressure | Rain* | Wind** | Luminosity | Snow |
|---|---|---|---|---|---|---|---|
| 1777750796 | 10° C | 52% | 1011.8 hPa | 0 mm | - | 301 W/m² | - |
| 1777750494 | 10.56° C | 52% | 1011.5 hPa | 0 mm | - | 172 W/m² | - |
| 1777750189 | 11.11° C | 45% | 1011.8 hPa | 0 mm | - | 265 W/m² | - |
| 1777749886 | 10.56° C | 50% | 1011.8 hPa | 0 mm | - | 752 W/m² | - |
| 1777749583 | 10.56° C | 52% | 1011.8 hPa | 0 mm | - | 339 W/m² | - |
| 1777749281 | 11.11° C | 49% | 1011.8 hPa | 0 mm | - | 480 W/m² | - |
| 1777748978 | 11.11° C | 50% | 1011.8 hPa | 0 mm | - | 855 W/m² | - |
| 1777748675 | 11.11° C | 50% | 1011.8 hPa | 0 mm | - | 362 W/m² | - |
| 1777748372 | 11.11° C | 54% | 1011.8 hPa | 0 mm | - | 769 W/m² | - |
| 1777748067 | 11.67° C | 55% | 1011.8 hPa | 0 mm | - | 853 W/m² | - |
| 1777747765 | 11.11° C | 50% | 1011.5 hPa | 0 mm | - | 902 W/m² | - |
| 1777747460 | 10.56° C | 55% | 1011.8 hPa | 0 mm | - | 888 W/m² | - |
| 1777747157 | 11.11° C | 53% | 1011.8 hPa | 0 mm | - | 773 W/m² | - |
| 1777746853 | 10° C | 54% | 1011.8 hPa | 0 mm | - | 953 W/m² | - |
| 1777746548 | 9.44° C | 55% | 1011.8 hPa | 0 mm | - | 928 W/m² | - |
| 1777746244 | 11.11° C | 56% | 1012.1 hPa | 0 mm | - | 254 W/m² | - |
| 1777745940 | 11.11° C | 56% | 1012.1 hPa | 0 mm | - | 906 W/m² | - |
| 1777745639 | 10.56° C | 55% | 1012.1 hPa | 0 mm | - | 951 W/m² | - |
| 1777745337 | 10.56° C | 58% | 1012.1 hPa | 0 mm | - | 407 W/m² | - |
| 1777745034 | 9.44° C | 59% | 1012.1 hPa | 0 mm | - | 300 W/m² | - |
| 1777744730 | 8.89° C | 57% | 1012.5 hPa | 0 mm | - | 774 W/m² | - |
| 1777744424 | 8.89° C | 64% | 1012.5 hPa | 0 mm | - | 338 W/m² | - |
| 1777744121 | 8.89° C | 65% | 1012.5 hPa | 0 mm | - | 413 W/m² | - |
| 1777743818 | 8.33° C | 64% | 1012.5 hPa | 0 mm | - | 1151 W/m² | - |
| 1777743514 | 8.33° C | 65% | 1012.1 hPa | 0 mm | - | 298 W/m² | - |
* Rain latest hour (hover to see other rain measurements)
** Current wind speed in m/s (hover to see current wind gust speed)